This is the latest recevied weather packets stored in our database for station/object N8ESC. If no packets are shown the sender has not sent any weather packets the latest 10 day(s).
| Time | Temp. | Humidity | Pressure | Rain* | Wind** | Luminosity | Snow |
|---|---|---|---|---|---|---|---|
| 1777316142 | 16.67° C | 57% | 1006.7 hPa | 0 mm | - | 319 W/m² | - |
| 1777315840 | 16.67° C | 57% | 1006.9 hPa | 0 mm | - | 348 W/m² | - |
| 1777315539 | 16.11° C | 58% | 1007 hPa | 0 mm | - | 428 W/m² | - |
| 1777315236 | 16.11° C | 59% | 1007.2 hPa | 0 mm | - | 345 W/m² | - |
| 1777314933 | 15.56° C | 60% | 1007.4 hPa | 0 mm | - | 499 W/m² | - |
| 1777314628 | 15.56° C | 60% | 1007.5 hPa | 0 mm | - | 318 W/m² | - |
| 1777314326 | 15.56° C | 60% | 1007.9 hPa | 0 mm | - | 328 W/m² | - |
| 1777314023 | 15° C | 61% | 1008.3 hPa | 0 mm | - | 332 W/m² | - |
| 1777313720 | 15.56° C | 61% | 1008.5 hPa | 0 mm | - | 319 W/m² | - |
| 1777313418 | 15° C | 61% | 1008.5 hPa | 0 mm | - | 417 W/m² | - |
| 1777313114 | 15.56° C | 61% | 1008.6 hPa | 0 mm | - | 295 W/m² | - |
| 1777312811 | 15° C | 61% | 1008.6 hPa | 0 mm | - | 382 W/m² | - |
| 1777312507 | 15° C | 62% | 1008.8 hPa | 0 mm | - | 507 W/m² | - |
| 1777312204 | 15° C | 62% | 1009.1 hPa | 0 mm | - | 391 W/m² | - |
| 1777311901 | 15° C | 62% | 1009.4 hPa | 0 mm | - | 514 W/m² | - |
| 1777311598 | 14.44° C | 62% | 1009.4 hPa | 0 mm | - | 536 W/m² | - |
| 1777311296 | 14.44° C | 62% | 1009.4 hPa | 0 mm | - | 573 W/m² | - |
| 1777310993 | 13.89° C | 63% | 1009.5 hPa | 0 mm | - | 395 W/m² | - |
| 1777310691 | 14.44° C | 63% | 1009.5 hPa | 0 mm | - | 319 W/m² | - |
| 1777310388 | 13.89° C | 63% | 1009.7 hPa | 0 mm | - | 511 W/m² | - |
| 1777310084 | 13.89° C | 64% | 1009.7 hPa | 0 mm | - | 455 W/m² | - |
| 1777309783 | 13.89° C | 63% | 1010 hPa | 0 mm | - | 423 W/m² | - |
| 1777309481 | 13.33° C | 64% | 1009.9 hPa | 0 mm | - | 410 W/m² | - |
| 1777309177 | 13.33° C | 64% | 1010.1 hPa | 0 mm | - | 389 W/m² | - |
| 1777308876 | 13.33° C | 64% | 1010.3 hPa | 0 mm | - | 357 W/m² | - |
* Rain latest hour (hover to see other rain measurements)
** Current wind speed in m/s (hover to see current wind gust speed)